weather.gov     
National Weather Service

Regional Weather Roundup
NWS Homepage
This page is being discontinued on March 12, 2014.
The same data is available at this site. Please update your bookmarks.
Thank you, and we apologize for the inconvenience.
Please send an email to SR-SRH.Webmaster@noaa.gov with any concerns.


Current Version
Previous Version:    01  02  03  04  05  06  07  08  09  10  11  12  13  14  15  16  17  18  19  20  21  22  23  24  25  26  27  28  29  30  
   31  32  33  34  35  36  37  38  39  40  41  42  43  44  45  46  47  48  49  50  51  52  53  54  
[Printable]
474
ASUS43 KFGF 290610
RWRFGF
PRAIRIE TO PINES  WEATHER ROUNDUP
NATIONAL WEATHER SERVICE EASTERN NORTH DAKOTA/GRAND FORKS ND
1200 AM CST SAT NOV 29 2014

 **SATELLITE DATA USED TO AUGMENT SKY COVER AT AUTOMATED STATIONS**
 *****  WEATHER ACROSS EASTERN NORTH DAKOTA  *****

CITY           SKY/WX    TMP DP  RH WIND       PRES   REMARKS
GRAND FORKS    CLOUDY    18  13  80 S10       29.56F WCI   6
6HR MIN TEMP:  14; 6HR MAX TEMP:  18;

GRAND FRKS AFB CLOUDY    17  14  87 S8        29.55F WCI   6
GRAND FRKS NWS   N/A     18 N/A N/A S16         N/A  WCI   3
DEVILS LAKE    CLOUDY    14   5  67 S12       29.45F WCI   0
6HR MIN TEMP:  12; 6HR MAX TEMP:  14;

FARGO          CLOUDY    21  16  81 S16       29.56F WCI   7
WAHPETON ARPT  CLOUDY    21  18  86 S16G22    29.56F WCI   7
$$

 ***** WEATHER ACROSS CENTRAL AND WESTERN NORTH DAKOTA  *****

CITY           SKY/WX    TMP DP  RH WIND       PRES   REMARKS
BISMARCK       CLOUDY    20  17  88 SE6       29.42F WCI  12
6HR MIN TEMP:  14; 6HR MAX TEMP:  20;

MINOT          CLOUDY     9   5  84 CALM      29.43S
6HR MIN TEMP:   8; 6HR MAX TEMP:  13;

JAMESTOWN      PTCLDY    13  10  88 SE7       29.46F WCI   3
6HR MIN TEMP:  12; 6HR MAX TEMP:  16;

MINOT AFB      CLOUDY    10   8  91 E6        29.43S WCI   1
GARRISON         N/A     16  12  84 NE3       29.39S
WILLISTON      CLOUDY    22  17  81 N12       29.46R WCI  10
6HR MIN TEMP:  18; 6HR MAX TEMP:  25;

DICKINSON      CLOUDY    45  32  60 SW12      29.32F
6HR MIN TEMP:  37; 6HR MAX TEMP:  48;

HETTINGER      CLOUDY    42  30  62 SW8       29.39F
6HR MIN TEMP:  39; 6HR MAX TEMP:  45;

$$

 *****  OTHER AIRPORT OBSERVATIONS IN OUR AREA  *****

CITY           SKY/WX    TMP DP  RH WIND       PRES   REMARKS
WALHALLA         N/A     14  14 100 SE6       29.55F WCI   5
GRAFTON AIRPOR CLOUDY    16  12  86 SE10      29.56F WCI   3
VALLEY CITY AR MOCLDY    16  16 100 SE6       29.49F WCI   7
CANDO          CLOUDY    14  10  85 SE8       29.46F WCI   3
CAVALIER APRT  CLOUDY    16  12  86 SE7       29.56F WCI   6
GWINNER        PTCLDY    19  18  93 SE7       29.53S WCI  10
SHEYENNE NWR     N/A     19  16  88 S9        29.95S WCI   8
ROLLA          CLOUDY    10   9  92 SE7       29.44F WCI   0
 ***** THE ABOVE OBSERVATIONS ARE NON NWS ARE NOT QUALITY
       CONTROLLED AND MAY MIS-REPORT RAIN FOR SNOW...
$$

  *****  WEATHER ACROSS NORTHERN MINNESOTA  *****

CITY           SKY/WX    TMP DP  RH WIND       PRES   REMARKS
FLAG ISLAND    FLURRIES  16  12  86 SE5       29.61F WCI   9
WARROAD        CLOUDY    18  12  79 SE3       29.61F
ROSEAU         CLOUDY    18  12  79 CALM      29.60F
HALLOCK        MOCLDY    18  12  79 SE10      29.57F WCI   6
THF RVR FALLS  CLOUDY    18  14  86 SE6       29.56F WCI   9
6HR MIN TEMP:  16; 6HR MAX TEMP:  18;

BAUDETTE       CLOUDY    17  12  80 SE5       29.61R WCI  10
6HR MIN TEMP:  15; 6HR MAX TEMP:  17; 6HR PCP:  0.01;

WASKISH        MOCLDY    18  12  79 CALM      29.59F
CROOKSTON      PTCLDY    18  14  86 S13       29.57F WCI   4
STEPHEN NDAWN    N/A     18  12  79 S7          N/A  WCI   8
GREENBUSH NDAW   N/A     18  12  79 SE7         N/A  WCI   8
$$
  *****  WEATHER ACROSS CENTRAL AND WEST MINNESOTA  *****

CITY           SKY/WX    TMP DP  RH WIND       PRES   REMARKS
FOSSTON        CLEAR     16  12  86 SE7       29.55F WCI   6
BEMIDJI        CLOUDY    17  13  85 S9        29.58F WCI   5
PARK RAPIDS    CLOUDY    17  14  88 SE13      29.58F WCI   4
6HR MIN TEMP:  15; 6HR MAX TEMP:  17;

ELBOW LAKE     CLOUDY    19  17  90 SE14      29.57F WCI   6
WADENA         CLOUDY    18  14  86 SE9       29.59F WCI   6
DETROIT LAKES  CLOUDY    19  18  93 SE15      29.55F WCI   5
MOORHEAD       CLOUDY    21  19  93 S17       29.57F WCI   7
FERGUS FALLS   CLOUDY    19  16  86 S14G22    29.60F WCI   6
MORRIS MN      PTCLDY    19  18  93 SE15      29.57F WCI   5
STAPLES        CLOUDY    18  14  86 SE6       29.61F WCI   9
$$
  *****  WEATHER ELSEWHERE ACROSS MINNESOTA  *****

CITY           SKY/WX    TMP DP  RH WIND       PRES   REMARKS
DULUTH         CLOUDY    18  13  80 SE8       29.67F WCI   8
6HR MIN TEMP:  16; 6HR MAX TEMP:  18; 6HR PCP:  0.05;

INTRNTL FALLS  CLOUDY    18  13  80 SE9G17    29.62F WCI   7
6HR MIN TEMP:  15; 6HR MAX TEMP:  18; 6HR PCP:  0.03;

ELY            CLOUDY    18  14  86 SE9       29.66F WCI   6
CLOQUET        PTCLDY    18  12  79 SE3       29.67F
WHEATON        CLOUDY    19  18  93 SE15      29.58F WCI   5
BRAINERD       CLOUDY    17  14  88 SE9       29.62F WCI   6
6HR MIN TEMP:  15; 6HR MAX TEMP:  17;

HIBBING        MIX PCPN  17  11  77 S6        29.65F WCI   9
6HR MIN TEMP:  16; 6HR MAX TEMP:  18; 6HR PCP: TRACE;

ALEXANDRIA     CLOUDY    19  16  88 SE12      29.59F WCI   7
6HR MIN TEMP:  16; 6HR MAX TEMP:  19;

SAINT CLOUD    MOCLDY    21  15  78 SE8       29.64F WCI  11
6HR MIN TEMP:  20; 6HR MAX TEMP:  21;

MINNEAPOLIS    MOCLDY    22  18  85 SE8       29.68F WCI  12
6HR MIN TEMP:  22; 6HR MAX TEMP:  24;

$$

  *****  WEATHER ACROSS SOUTH DAKOTA  *****

CITY           SKY/WX    TMP DP  RH WIND       PRES   REMARKS
SIOUX FALLS    PTCLDY    22  19  89 NE7       29.54F WCI  13
6HR MIN TEMP:  21; 6HR MAX TEMP:  29;

BROOKINGS      NOT AVBL
WATERTOWN      PTCLDY    23  21  92 S13       29.50F WCI  11
6HR MIN TEMP:  16; 6HR MAX TEMP:  23;

HURON          CLEAR     25  23  92 SE6       29.50F WCI  18
6HR MIN TEMP:  25; 6HR MAX TEMP:  30;

SISSETON         N/A     19  18  95 S16       29.53F WCI   4
ABERDEEN       CLOUDY    21  17  84 CALM      29.50F
6HR MIN TEMP:  14; 6HR MAX TEMP:  21;

MITCHELL       PTCLDY    28  25  88 SE8       29.52F WCI  20
PIERRE         PTCLDY    28  25  88 SE8       29.45F WCI  20
6HR MIN TEMP:  24; 6HR MAX TEMP:  30;

MOBRIDGE       PTCLDY    27  22  81 S13       29.41F WCI  16
RAPID CITY     CLEAR     50  20  30 SW9       29.47F
6HR MIN TEMP:  43; 6HR MAX TEMP:  53;

$$

  *****  SOME WEATHER IN NEARBY STATES *****

CITY           SKY/WX    TMP DP  RH WIND       PRES   REMARKS
GLASGOW MT     CLOUDY    10   3  73 NW22      29.55R WCI -10
6HR MIN TEMP:  10; 6HR MAX TEMP:  30;

GREAT FALLS MT CLOUDY     0  -6  76 NW14      29.61R WCI -19
6HR MIN TEMP:   0; 6HR MAX TEMP:  14; 6HR PCP: TRACE;

CHEYENNE WY    MOCLDY    46  12  25 SW6       29.76F
6HR MIN TEMP:  43; 6HR MAX TEMP:  53;

SCOTTSBLUFF NE CLOUDY    56  16  20 SW15      29.66F
6HR MIN TEMP:  37; 6HR MAX TEMP:  58;

OMAHA NE       PTCLDY    37  31  78 SE9       29.61F
6HR MIN TEMP:  36; 6HR MAX TEMP:  45;

DES MOINES IA  PTCLDY    36  30  79 SE8       29.63F
6HR MIN TEMP:  36; 6HR MAX TEMP:  41;

DAVENPORT IA   CLEAR     33  28  81 S15       29.76F WCI  23
6HR MIN TEMP:  31; 6HR MAX TEMP:  34;

CHICAGO IL     PTCLDY    30  27  88 S8        29.87F WCI  22
6HR MIN TEMP:  30; 6HR MAX TEMP:  34;

EAU CLAIRE WI  PTCLDY    22  18  85 E8        29.74F WCI  12
6HR MIN TEMP:  21; 6HR MAX TEMP:  24; 6HR PCP: TRACE;

LA CROSSE WI   PTCLDY    27  21  78 E7        29.75F WCI  19
6HR MIN TEMP:  25; 6HR MAX TEMP:  28;

$$

  *****  SOME NATIONAL WEATHER *****

CITY           SKY/WX    TMP DP  RH WIND       PRES   REMARKS
LA GUARDIA NY  MOCLDY    29  12  49 NW7       30.29R WCI  22
6HR MIN TEMP:  29; 6HR MAX TEMP:  31;

RALEIGH NC     PTCLDY    29  23  78 CALM      30.29F
6HR MIN TEMP:  28; 6HR MAX TEMP:  34;

ATLANTA GA     PTCLDY    37  22  54 CALM      30.25F
6HR MIN TEMP:  35; 6HR MAX TEMP:  44;

NEW ORLEANS LA CLEAR     50  45  83 SE7       30.24F
6HR MIN TEMP:  47; 6HR MAX TEMP:  53;

OKLAHOMA CITY  PTCLDY    58  43  57 S20       29.81F
6HR MIN TEMP:  55; 6HR MAX TEMP:  59;

ALBUQUERQUE NM CLEAR     45  19  35 SE7       30.08S
6HR MIN TEMP:  41; 6HR MAX TEMP:  58;

SALT LAKE CITY MOCLDY    59  12  15 S24G35    29.75F
6HR MIN TEMP:  55; 6HR MAX TEMP:  61;

LOS ANGELES CA FOG       61  56  83 CALM      29.91R VSB 1/2




U.S. Dept. of Commerce
NOAA National Weather Service
1325 East West Highway
Silver Spring, MD 20910
E-mail: w-nws.webmaster@noaa.gov
Page last modified: May 16, 2007
NATIONAL WEATHER SERVICE: for Safety, for Work, for Fun - FOR LIFE